Hourly Weather Dziadowo

Today, 18 May, Tuesday

Time Temperature Precipitation Wind Pressure Humidity
00:00 +11°C° 0 mm 1 mps 751 mmHg 89%
01:00 +9°C° 0 mm 0 mps 751 mmHg 89%
02:00 +10°C° 0 mm 1 mps 751 mmHg 90%
03:00 +10°C° 0 mm 1 mps 751 mmHg 90%
04:00 +10°C° 0 mm 1 mps 752 mmHg 91%
05:00 +11°C° 0 mm 1 mps 752 mmHg 89%
06:00 +12°C° 0 mm 1 mps 752 mmHg 86%
07:00 +13°C° 0 mm 2 mps 753 mmHg 84%
08:00 +14°C° 0.1 mm 2 mps 753 mmHg 80%
09:00 +13°C° 0.1 mm 3 mps 753 mmHg 77%
10:00 +14°C° 0.1 mm 3 mps 753 mmHg 73%
11:00 +14°C° 0.4 mm 4 mps 753 mmHg 74%
12:00 +14°C° 0.4 mm 4 mps 753 mmHg 75%
13:00 +14°C° 0.4 mm 5 mps 754 mmHg 75%
14:00 +14°C° 0.2 mm 5 mps 754 mmHg 76%
15:00 +14°C° 0.2 mm 5 mps 754 mmHg 76%
16:00 +13°C° 0.2 mm 5 mps 754 mmHg 76%
17:00 +12°C° 0 mm 4 mps 755 mmHg 79%
18:00 +12°C° 0 mm 4 mps 755 mmHg 81%
19:00 +11°C° 0 mm 3 mps 755 mmHg 84%
20:00 +10°C° 0 mm 3 mps 755 mmHg 86%
21:00 +9°C° 0 mm 3 mps 755 mmHg 88%
22:00 +8°C° 0 mm 2 mps 755 mmHg 89%
23:00 +7°C° 0 mm 2 mps 755 mmHg 90%

Tomorrow, 19 May, Wednesday

Time Temperature Precipitation Wind Pressure Humidity
00:00 +7°C° 0 mm 3 mps 755 mmHg 91%
01:00 +7°C° 0 mm 3 mps 756 mmHg 92%
02:00 +7°C° 0 mm 3 mps 756 mmHg 93%
03:00 +7°C° 0 mm 3 mps 756 mmHg 93%
04:00 +7°C° 0 mm 3 mps 756 mmHg 94%
05:00 +8°C° 0 mm 3 mps 756 mmHg 90%
06:00 +10°C° 0 mm 3 mps 756 mmHg 85%
07:00 +11°C° 0 mm 4 mps 757 mmHg 81%
08:00 +12°C° 0 mm 4 mps 757 mmHg 75%
09:00 +12°C° 0 mm 4 mps 757 mmHg 70%
10:00 +13°C° 0 mm 4 mps 757 mmHg 65%
11:00 +13°C° 0 mm 4 mps 757 mmHg 64%
12:00 +14°C° 0 mm 4 mps 757 mmHg 63%
13:00 +14°C° 0 mm 5 mps 757 mmHg 62%
14:00 +13°C° 0 mm 4 mps 758 mmHg 61%
15:00 +13°C° 0 mm 4 mps 758 mmHg 61%
16:00 +13°C° 0 mm 4 mps 758 mmHg 61%
17:00 +12°C° 0 mm 3 mps 758 mmHg 66%
18:00 +12°C° 0 mm 2 mps 758 mmHg 71%
19:00 +10°C° 0 mm 2 mps 758 mmHg 76%
20:00 +9°C° 0 mm 2 mps 758 mmHg 79%
21:00 +8°C° 0 mm 2 mps 758 mmHg 81%
22:00 +7°C° 0 mm 2 mps 759 mmHg 84%
23:00 +7°C° 0 mm 2 mps 759 mmHg 85%

Day after tomorrow, 20 May, Thursday

Time Temperature Precipitation Wind Pressure Humidity
00:00 +7°C° 0 mm 3 mps 759 mmHg 87%
01:00 +5°C° 0 mm 3 mps 759 mmHg 89%
02:00 +5°C° 0 mm 3 mps 759 mmHg 90%
03:00 +5°C° 0 mm 3 mps 759 mmHg 91%
04:00 +5°C° 0 mm 3 mps 759 mmHg 93%
05:00 +8°C° 0 mm 3 mps 760 mmHg 87%
06:00 +8°C° 0 mm 4 mps 760 mmHg 82%
07:00 +11°C° 0 mm 4 mps 760 mmHg 77%
08:00 +12°C° 0 mm 4 mps 760 mmHg 74%
09:00 +12°C° 0 mm 5 mps 761 mmHg 71%
10:00 +13°C° 0 mm 5 mps 761 mmHg 68%
11:00 +13°C° 0 mm 5 mps 761 mmHg 66%
12:00 +13°C° 0 mm 5 mps 761 mmHg 65%
13:00 +13°C° 0 mm 5 mps 761 mmHg 63%
14:00 +13°C° 0 mm 6 mps 761 mmHg 62%
15:00 +13°C° 0 mm 6 mps 761 mmHg 62%
16:00 +11°C° 0 mm 6 mps 762 mmHg 61%
17:00 +11°C° 0 mm 6 mps 762 mmHg 65%
18:00 +10°C° 0 mm 5 mps 762 mmHg 69%
19:00 +9°C° 0 mm 5 mps 762 mmHg 72%
20:00 +8°C° 0 mm 4 mps 762 mmHg 77%
21:00 +7°C° 0 mm 4 mps 762 mmHg 81%
22:00 +6°C° 0 mm 4 mps 762 mmHg 86%
23:00 +6°C° 0 mm 4 mps 761 mmHg 88%

21 May, Friday

Time Temperature Precipitation Wind Pressure Humidity
00:00 +5°C° 0 mm 4 mps 761 mmHg 91%
01:00 +5°C° 0 mm 4 mps 761 mmHg 93%
02:00 +5°C° 0 mm 4 mps 761 mmHg 94%
03:00 +5°C° 0 mm 3 mps 760 mmHg 94%
04:00 +4°C° 0 mm 3 mps 760 mmHg 94%
05:00 +6°C° 0 mm 4 mps 760 mmHg 89%
06:00 +8°C° 0 mm 4 mps 760 mmHg 84%
07:00 +9°C° 0 mm 5 mps 759 mmHg 79%
08:00 +12°C° 0 mm 5 mps 759 mmHg 74%
09:00 +13°C° 0 mm 5 mps 759 mmHg 69%
10:00 +14°C° 0 mm 5 mps 758 mmHg 64%
11:00 +15°C° 0.2 mm 5 mps 758 mmHg 65%
12:00 +15°C° 0.2 mm 6 mps 757 mmHg 65%
13:00 +16°C° 0.2 mm 6 mps 757 mmHg 66%
14:00 +15°C° 0.3 mm 6 mps 756 mmHg 67%
15:00 +15°C° 0.3 mm 6 mps 756 mmHg 68%
16:00 +15°C° 0.3 mm 6 mps 755 mmHg 69%
17:00 +14°C° 0.2 mm 6 mps 755 mmHg 73%
18:00 +13°C° 0.2 mm 5 mps 755 mmHg 77%
19:00 +12°C° 0.2 mm 5 mps 754 mmHg 81%
20:00 +12°C° 0.1 mm 5 mps 754 mmHg 84%
21:00 +11°C° 0.1 mm 4 mps 754 mmHg 87%
22:00 +11°C° 0.1 mm 4 mps 753 mmHg 89%
23:00 +11°C° 0.2 mm 4 mps 753 mmHg 89%

22 May, Saturday

Time Temperature Precipitation Wind Pressure Humidity
00:00 +11°C° 0.2 mm 3 mps 752 mmHg 88%
01:00 +11°C° 0.2 mm 3 mps 751 mmHg 87%
02:00 +11°C° 0.2 mm 4 mps 751 mmHg 88%
03:00 +10°C° 0.2 mm 5 mps 750 mmHg 88%
04:00 +10°C° 0.2 mm 6 mps 750 mmHg 89%
05:00 +10°C° 0.4 mm 6 mps 750 mmHg 90%
06:00 +10°C° 0.4 mm 6 mps 750 mmHg 91%
07:00 +10°C° 0.4 mm 7 mps 750 mmHg 92%
08:00 +11°C° 0.5 mm 6 mps 750 mmHg 88%
09:00 +12°C° 0.5 mm 5 mps 751 mmHg 85%
10:00 +12°C° 0.5 mm 4 mps 751 mmHg 81%
11:00 +13°C° 0.2 mm 5 mps 751 mmHg 78%
12:00 +14°C° 0.2 mm 6 mps 752 mmHg 74%
13:00 +15°C° 0.2 mm 6 mps 752 mmHg 71%
14:00 +15°C° 0.4 mm 6 mps 752 mmHg 69%
15:00 +15°C° 0.4 mm 6 mps 752 mmHg 68%
16:00 +15°C° 0.4 mm 6 mps 752 mmHg 66%
17:00 +14°C° 0.4 mm 6 mps 752 mmHg 72%
18:00 +13°C° 0.4 mm 5 mps 752 mmHg 78%
19:00 +12°C° 0.4 mm 5 mps 752 mmHg 84%
20:00 +10°C° 0 mm 5 mps 752 mmHg 87%
21:00 +9°C° 0 mm 5 mps 753 mmHg 90%
22:00 +8°C° 0 mm 5 mps 753 mmHg 93%
23:00 +8°C° 0 mm 5 mps 753 mmHg 93%

23 May, Sunday

Time Temperature Precipitation Wind Pressure Humidity
00:00 +7°C° 0 mm 5 mps 753 mmHg 93%
01:00 +7°C° 0 mm 5 mps 753 mmHg 94%
02:00 +7°C° 0 mm 5 mps 753 mmHg 95%
03:00 +6°C° 0 mm 5 mps 753 mmHg 95%
04:00 +6°C° 0 mm 5 mps 753 mmHg 96%
05:00 +7°C° 0 mm 5 mps 753 mmHg 92%
06:00 +8°C° 0 mm 6 mps 753 mmHg 89%
07:00 +10°C° 0 mm 7 mps 754 mmHg 85%
08:00 +11°C° 0 mm 7 mps 754 mmHg 75%
09:00 +12°C° 0 mm 7 mps 754 mmHg 65%
10:00 +14°C° 0 mm 7 mps 754 mmHg 54%
11:00 +14°C° 0 mm 7 mps 754 mmHg 52%
12:00 +15°C° 0 mm 7 mps 754 mmHg 50%
13:00 +15°C° 0 mm 7 mps 754 mmHg 48%
14:00 +15°C° 0 mm 6 mps 754 mmHg 51%
15:00 +15°C° 0 mm 6 mps 754 mmHg 54%
16:00 +14°C° 0 mm 6 mps 754 mmHg 57%
17:00 +13°C° 0.1 mm 5 mps 754 mmHg 63%
18:00 +12°C° 0.1 mm 4 mps 755 mmHg 69%
19:00 +11°C° 0.1 mm 4 mps 755 mmHg 75%
20:00 +10°C° 0 mm 4 mps 755 mmHg 79%
21:00 +9°C° 0 mm 3 mps 756 mmHg 83%
22:00 +8°C° 0 mm 3 mps 756 mmHg 87%
23:00 +7°C° 0 mm 4 mps 756 mmHg 87%
Show more